"2010-01-31 00:00:00",1638999,7.128,81.1,6.728,1.23,7.429,102.0883,4.629,5.942,32.87,0,109.9,13.42,5.40,43.1
"2010-01-31 00:00:30",1639000,8.14,86.5,4.814,0.557,9.03,102.0691,4.58,5.959,32.93,0,110,13.42,5.35,48.5
"2010-01-31 00:01:00",1639001,8.47,89.2,3.653,0.54,9.25,102.0661,4.572,5.977,33,0,110,13.42,5.34,51.2
"2010-01-31 00:01:30",1639002,7.585,83.2,6.013,1.205,7.522,102.0573,4.55,5.849,33.01,0,110,13.42,5.32,45.2
"2010-01-31 00:02:00",1639003,7.711,85.2,6.047,1.111,7.676,102.0342,4.49,5.712,32.88,0,109.9,13.42,5.26,47.2
"2010-01-31 00:02:30",1639004,6.369,78.36,3.787,0.663,5.366,102.0339,4.49,5.695,32.82,0,110,13.42,5.26,40.4
"2010-01-31 00:03:00",1639005,7.516,84.4,6.802,1.168,7.63,102.0155,4.443,5.748,32.96,0,109.9,13.42,5.21,46.4
"2010-01-31 00:03:30",1639006,8.05,88,6.084,1.045,8.59,102,4.403,5.807,33.04,0,109.9,13.42,5.17,50.0
"2010-01-31 00:04:00",1639007,8.29,92.1,2.725,0.895,9.26,101.9966,4.395,5.808,33.1,0,109.9,13.42,5.16,54.1
"2010-01-31 00:04:30",1639008,8.03,91.5,5.121,1.105,8.5,101.9681,4.322,5.697,32.99,0,109.9,13.42,5.09,53.5
"2010-01-31 00:05:00",1639009,7.716,88.6,7.038,1.252,7.328,101.9661,4.317,5.631,32.93,0,109.9,13.42,5.08,50.6
"2010-01-31 00:05:30",1639010,7.464,86.1,6.094,1.204,6.304,101.9548,4.288,5.464,32.89,0,109.9,13.42,5.05,48.1
"2010-01-31 00:06:00",1639011,8.1,87.7,6.227,1.198,7.704,101.9325,4.231,5.556,33.09,0,109.9,13.42,5.00,49.7
"2010-01-31 00:06:30",1639012,8.18,88.7,6.168,1.137,8.29,101.9319,4.229,5.607,33.24,0,109.9,13.43,5.00,50.7
"2010-01-31 00:07:00",1639013,8.75,91.1,4.857,0.794,8.96,101.9124,4.18,5.597,33.16,0,109.9,13.43,4.95,53.1
"2010-01-31 00:07:30",1639014,8.83,91.4,3.528,0.673,9.05,101.8983,4.144,5.59,33.15,0,109.9,13.43,4.91,53.4
"2010-01-31 00:08:00",1639015,8.87,92.5,2.657,0.512,9.16,101.8963,4.138,5.559,33.11,0,109.9,13.43,4.90,54.5
"2010-01-31 00:08:30",1639016,8.63,92.8,3.315,0.671,8.94,101.8763,4.087,5.556,33.05,0,110,13.43,4.85,54.8
"2010-01-31 00:09:00",1639017,8.27,89.5,5.873,1.039,7.748,101.8699,4.071,5.441,32.96,0,109.9,13.43,4.84,51.5
"2010-01-31 00:09:30",1639018,6.809,83,4.672,0.89,4.97,101.8702,4.072,5.203,32.79,0,109.9,13.43,4.84,45.0
"2010-01-31 00:10:00",1639019,6.71,81.9,4.634,0.972,4.815,101.8476,4.014,5.155,32.8,0,109.9,13.43,4.78,43.9
"2010-01-31 00:10:30",1639020,7.423,84.4,6.262,1.23,7.303,101.8391,3.992,5.357,33.09,0,109.9,13.43,4.76,46.4
"2010-01-31 00:11:00",1639021,8.35,90.1,4.318,0.794,9.65,101.8415,3.998,5.424,33.28,0,109.9,13.43,4.76,52.1
"2010-01-31 00:11:30",1639022,8.33,90.4,3.639,0.705,9.56,101.8319,3.974,5.404,33.37,0,109.9,13.43,4.74,52.4
"2010-01-31 00:12:00",1639023,8.16,92.3,3.431,0.776,9.32,101.8224,3.95,5.365,33.42,0,109.9,13.43,4.72,54.3
"2010-01-31 00:12:30",1639024,8.31,92.3,3.652,0.676,8.96,101.8213,3.947,5.297,33.33,0,109.9,13.43,4.71,54.3
"2010-01-31 00:13:00",1639025,7.247,88,6.807,1.173,7.127,101.8223,3.949,5.17,33.3,0,109.9,13.43,4.72,50.0
"2010-01-31 00:13:30",1639026,5.841,81.3,0.992,0.074,4.422,101.7997,3.892,4.982,33.15,0,109.9,13.46,4.66,43.3
"2010-01-31 00:14:00",1639027,7.582,91.9,7.18,1.272,7.614,101.7958,3.882,5.188,33.34,0,109.9,13.44,4.65,53.9
"2010-01-31 00:14:30",1639028,7.929,94.3,5.77,1.098,8.66,101.7969,3.885,5.239,33.44,0,109.9,13.44,4.65,56.3
"2010-01-31 00:15:00",1639029,8.29,96.4,3.75,0.797,9.56,101.7969,3.885,5.221,33.48,0,109.9,13.44,4.65,58.4
"2010-01-31 00:15:30",1639030,8.37,96.2,4.156,0.569,9.49,101.7786,3.838,5.2,33.5,0,109.9,13.44,4.60,58.2
"2010-01-31 00:16:00",1639031,7.717,93.8,5.249,1.037,8.27,101.7633,3.799,5.109,33.42,0,109.9,13.44,4.56,55.8
"2010-01-31 00:16:30",1639032,6.301,86.4,4.729,0.876,5.403,101.7633,3.799,4.985,33.38,0,109.9,13.45,4.56,48.4
"2010-01-31 00:17:00",1639033,6.681,87.5,5.827,1.174,5.651,101.7633,3.799,4.905,33.33,0,109.9,13.45,4.56,49.5
"2010-01-31 00:17:30",1639034,7.876,94.8,5.095,1.025,8.62,101.7591,3.788,5.106,33.57,0,109.9,13.45,4.55,56.8
"2010-01-31 00:18:00",1639035,7.836,94.2,4.466,1.018,8.9,101.7407,3.741,5.068,33.65,0,109.9,13.45,4.51,56.2
"2010-01-31 00:18:30",1639036,8.17,94.1,4.956,0.972,9.12,101.73,3.714,5.077,33.68,0,109.9,13.45,4.48,56.1
"2010-01-31 00:19:00",1639037,8.19,95.9,4.615,0.944,8.98,101.7294,3.712,5.062,33.69,0,109.9,13.45,4.48,57.9
"2010-01-31 00:19:30",1639038,7.947,93.5,5.921,1.121,7.958,101.7294,3.712,5.01,33.73,0,109.8,13.45,4.48,55.5
"2010-01-31 00:20:00",1639039,6.97,88.1,5.868,1.177,6.285,101.7294,3.712,4.898,33.66,0,109.8,13.45,4.48,50.1
"2010-01-31 00:20:30",1639040,7.014,89.5,6.473,1.243,6.497,101.7294,3.712,4.831,33.62,0,109.8,13.45,4.48,51.5
"2010-01-31 00:21:00",1639041,6.653,88.1,5.869,1.169,6.162,101.7257,3.703,4.892,33.74,0,109.8,13.45,4.47,50.1
"2010-01-31 00:21:30",1639042,7.81,93.9,4.952,0.969,9.01,101.7164,3.679,5.038,33.9,0,109.8,13.45,4.44,55.9
"2010-01-31 00:22:00",1639043,7.823,94.1,3.601,0.806,9.27,101.7037,3.647,5.039,33.92,0,109.9,13.45,4.41,56.1
"2010-01-31 00:22:30",1639044,7.982,92.9,4.048,0.661,9.21,101.6961,3.627,5.026,33.93,0,109.8,13.45,4.39,54.9
"2010-01-31 00:23:00",1639045,7.058,87.8,6.03,1.153,7.225,101.6955,3.626,4.989,33.87,0,109.8,13.45,4.39,49.8
"2010-01-31 00:23:30",1639046,5.947,84.6,4.549,0.449,5.343,101.6955,3.626,4.837,33.76,0,109.8,13.49,4.39,46.6
"2010-01-31 00:24:00",1639047,7.121,89.5,5.978,1.221,6.217,101.6955,3.626,4.737,33.73,0,109.8,13.46,4.39,51.5
"2010-01-31 00:24:30",1639048,7.852,92.6,5.686,0.977,8.49,101.6966,3.629,4.96,33.98,0,109.8,13.46,4.39,54.6
"2010-01-31 00:25:00",1639049,8.31,95.8,3.283,0.53,9.64,101.6984,3.633,4.986,34.06,0,109.8,13.46,4.40,57.8
"2010-01-31 00:25:30",1639050,8.18,94.2,3.752,0.597,9.41,101.6976,3.631,4.985,34.1,0,109.8,13.46,4.40,56.2
"2010-01-31 00:26:00",1639051,8.16,94.6,3.741,0.685,9.21,101.6929,3.619,4.96,34.04,0,109.8,13.46,4.38,56.6
"2010-01-31 00:26:30",1639052,6.063,84.7,2.429,0.472,4.711,101.6819,3.591,4.686,33.81,0,109.8,13.46,4.36,46.7
"2010-01-31 00:27:00",1639053,7.154,91.4,6.469,1.218,6.614,101.6837,3.596,4.784,33.96,0,109.8,13.46,4.36,53.4
"2010-01-31 00:27:30",1639054,6.801,89.4,5.986,1.152,6.604,101.6874,3.605,4.856,34.14,0,109.8,13.46,4.37,51.4
"2010-01-31 00:28:00",1639055,8.34,97.7,2.648,0.716,9.46,101.6883,3.607,4.95,34.32,0,109.8,13.46,4.37,59.7
"2010-01-31 00:28:30",1639056,8.35,97.1,4.554,0.782,9.55,101.6915,3.615,4.958,34.41,0,109.8,13.46,4.38,59.1
"2010-01-31 00:29:00",1639057,8.06,94.5,5.168,1.027,8.54,101.6949,3.624,4.935,34.46,0,109.8,13.46,4.39,56.5
"2010-01-31 00:29:30",1639058,6.84,87.2,5.887,1.195,6.144,101.6955,3.626,4.78,34.23,0,109.8,13.46,4.39,49.2
"2010-01-31 00:30:00",1639059,7.147,89.5,6.563,1.205,6.514,101.6947,3.624,4.728,34.24,0,109.8,13.46,4.39,51.5
"2010-01-31 00:30:30",1639060,6.814,87.2,6.034,1.194,6.513,101.6814,3.59,4.799,34.29,0,109.8,13.47,4.35,49.2
"2010-01-31 00:31:00",1639061,8.18,93.6,4.658,0.796,8.81,101.6661,3.551,4.888,34.37,0,109.8,13.47,4.32,55.6
"2010-01-31 00:31:30",1639062,8.27,95.6,3.155,0.779,9.38,101.6624,3.541,4.914,34.51,0,109.8,13.47,4.31,57.6
"2010-01-31 00:32:00",1639063,7.952,94.2,5.748,1.065,8.54,101.6624,3.541,4.838,34.6,0,109.8,13.47,4.31,56.2
"2010-01-31 00:32:30",1639064,7.239,90.5,6.994,1.311,6.733,101.6621,3.541,4.719,34.57,0,109.8,13.47,4.30,52.5
"2010-01-31 00:33:00",1639065,7.306,90.9,6.245,1.209,6.613,101.6621,3.541,4.724,34.61,0,109.8,13.47,4.30,52.9
"2010-01-31 00:33:30",1639066,7.14,89.5,6.002,1.156,6.459,101.6621,3.541,4.71,34.63,0,109.8,13.47,4.30,51.5
"2010-01-31 00:34:00",1639067,8.52,96.8,4.074,0.704,8.94,101.6621,3.541,4.861,34.84,0,109.8,13.47,4.30,58.8
"2010-01-31 00:34:30",1639068,8.45,96.9,3.684,0.768,9.38,101.6621,3.541,4.866,34.86,0,109.8,13.47,4.30,58.9
"2010-01-31 00:35:00",1639069,7.949,93.7,5.696,1.116,8.19,101.6616,3.539,4.795,34.72,0,109.8,13.47,4.30,55.7
"2010-01-31 00:35:30",1639070,7.16,89.7,6.402,1.23,6.624,101.6579,3.53,4.74,34.69,0,109.8,13.47,4.29,51.7
"2010-01-31 00:36:00",1639071,7.401,89.8,6.118,1.143,6.243,101.6494,3.508,4.592,34.51,0,109.8,13.47,4.27,51.8
"2010-01-31 00:36:30",1639072,7.591,91.6,6.407,1.241,7.018,101.6387,3.481,4.738,34.63,0,109.8,13.47,4.25,53.6
"2010-01-31 00:37:00",1639073,8.55,95.9,4.897,0.762,8.91,101.6319,3.463,4.827,34.65,0,109.8,13.48,4.23,57.9
"2010-01-31 00:37:30",1639074,7.979,94.9,5.844,1.169,7.792,101.6285,3.455,4.767,34.65,0,109.8,13.48,4.22,56.9
"2010-01-31 00:38:00",1639075,8.06,95.8,5.634,1.136,8.15,101.6282,3.454,4.764,34.64,0,109.8,13.48,4.22,57.8
"2010-01-31 00:38:30",1639076,8.54,97,3.948,0.787,8.62,101.6282,3.454,4.688,34.52,0,109.8,13.48,4.22,59.0
"2010-01-31 00:39:00",1639077,7.411,89,5.432,1.196,5.992,101.6282,3.454,4.622,34.39,0,109.8,13.48,4.22,51.0
"2010-01-31 00:39:30",1639078,8.42,93.6,6.017,1.118,7.982,101.6282,3.454,4.743,34.46,0,109.8,13.48,4.22,55.6
"2010-01-31 00:40:00",1639079,8.73,96.1,4.356,0.968,8.51,101.6282,3.454,4.781,34.51,0,109.8,13.48,4.22,58.1
"2010-01-31 00:40:30",1639080,8.4,94.5,5.629,1.108,8.17,101.6285,3.455,4.752,34.41,0,109.8,13.48,4.22,56.5
"2010-01-31 00:41:00",1639081,8.09,92.2,6.463,1.185,7.417,101.6288,3.455,4.66,34.35,0,109.8,13.48,4.22,54.2
"2010-01-31 00:41:30",1639082,7.548,89.6,6.038,1.286,6.815,101.6302,3.459,4.666,34.44,0,109.8,13.48,4.22,51.6
"2010-01-31 00:42:00",1639083,7.577,91.2,6.039,1.201,7.262,101.6294,3.457,4.72,34.35,0,109.8,13.47,4.22,53.2
"2010-01-31 00:42:30",1639084,8.51,96.6,5.611,0.99,8.05,101.6258,3.448,4.72,34.28,0,109.8,13.47,4.21,58.6
"2010-01-31 00:43:00",1639085,8.35,96.2,5.584,1.11,8.08,101.6227,3.44,4.713,34.18,0,109.8,13.47,4.20,58.2
"2010-01-31 00:43:30",1639086,8.07,94.1,6.54,1.233,7.32,101.6204,3.434,4.7,34.03,0,109.8,13.47,4.20,56.1
"2010-01-31 00:44:00",1639087,8.5,95.5,6.012,1.127,7.714,101.6205,3.434,4.705,33.97,0,109.8,13.47,4.20,57.5
"2010-01-31 00:44:30",1639088,8.67,95.3,5.127,0.94,8.31,101.6135,3.416,4.642,33.88,0,109.8,13.47,4.18,57.3
"2010-01-31 00:45:00",1639089,8.6,94.5,5.047,1.026,7.838,101.6129,3.415,4.708,33.9,0,109.8,13.47,4.18,56.5
"2010-01-31 00:45:30",1639090,7.656,91.1,6.283,1.209,6.466,101.6112,3.411,4.659,33.84,0,109.8,13.47,4.17,53.1
"2010-01-31 00:46:00",1639091,8.28,93.7,5.925,1.225,7.817,101.6144,3.419,4.703,34.08,0,109.8,13.47,4.18,55.7
"2010-01-31 00:46:30",1639092,8.74,95,5.75,1.031,8.27,101.617,3.425,4.686,34.3,0,109.8,13.48,4.19,57.0
"2010-01-31 00:47:00",1639093,8.8,95.7,5.925,1.058,8.15,101.6184,3.429,4.699,33.97,0,109.7,13.48,4.19,57.7
"2010-01-31 00:47:30",1639094,8.64,93.7,5.803,0.942,8.23,101.6204,3.434,4.676,33.88,0,109.8,13.49,4.20,55.7
"2010-01-31 00:48:00",1639095,8.3,92.8,5.954,1.143,7.789,101.6207,3.435,4.671,34.08,0,109.7,13.49,4.20,54.8
"2010-01-31 00:48:30",1639096,7.976,91.5,6.566,1.236,7.019,101.6204,3.434,4.595,34.06,0,109.8,13.49,4.20,53.5
"2010-01-31 00:49:00",1639097,8.27,92.3,7.177,1.213,7.636,101.6207,3.435,4.683,34.4,0,109.7,13.49,4.20,54.3
"2010-01-31 00:49:30",1639098,8.28,93.4,6.14,1.199,7.417,101.6182,3.428,4.59,34.02,0,109.8,13.49,4.19,55.4
"2010-01-31 00:50:00",1639099,9.02,97,3.845,0.591,8.99,101.6097,3.407,4.729,34.08,0,109.7,13.49,4.17,59.0
"2010-01-31 00:50:30",1639100,8.29,93.2,5.311,1.064,8,101.6043,3.393,4.649,34.17,0,109.7,13.49,4.16,55.2
"2010-01-31 00:51:00",1639101,8.07,92.7,5.987,1.193,7.67,101.5968,3.374,4.573,34.04,0,109.7,13.49,4.14,54.7
"2010-01-31 00:51:30",1639102,7.863,90.5,6.133,1.204,6.416,101.5925,3.363,4.547,34.03,0,109.7,13.49,4.13,52.5
"2010-01-31 00:52:00",1639103,8.15,91.8,5.893,1.035,7.999,101.5946,3.368,4.616,34.19,0,109.7,13.49,4.13,53.8
"2010-01-31 00:52:30",1639104,8.12,92.1,5.612,1.058,8.3,101.5948,3.369,4.642,34.23,0,109.7,13.49,4.13,54.1
"2010-01-31 00:53:00",1639105,8.14,92.4,5.321,1.078,8.3,101.5948,3.369,4.672,34.22,0,109.7,13.49,4.13,54.4
"2010-01-31 00:53:30",1639106,8.05,91.8,5.407,1.134,7.896,101.5948,3.369,4.637,34.21,0,109.7,13.49,4.13,53.8
"2010-01-31 00:54:00",1639107,6.221,84,2.614,0.06,4.867,101.5948,3.369,4.494,33.93,0,109.7,13.49,4.13,46.0
"2010-01-31 00:54:30",1639108,7.854,92.2,4.947,1.154,7.948,101.5948,3.369,4.599,34.02,0,109.7,13.49,4.13,54.2
"2010-01-31 00:55:00",1639109,8.03,92.1,5.738,1.008,7.885,101.5948,3.369,4.546,34.06,0,109.7,13.49,4.13,54.1
"2010-01-31 00:55:30",1639110,8.5,95.3,4.627,0.794,8.97,101.5914,3.36,4.66,34.27,0,109.7,13.49,4.12,57.3
"2010-01-31 00:56:00",1639111,8.47,94.9,4.48,0.879,8.65,101.5824,3.337,4.644,34.14,0,109.7,13.49,4.10,56.9
"2010-01-31 00:56:30",1639112,7.933,91.9,6.255,1.186,6.911,101.5759,3.32,4.544,34.06,0,109.8,13.49,4.08,53.9
"2010-01-31 00:57:00",1639113,7.93,91.5,6.47,1.182,6.203,101.577,3.323,4.406,33.91,0,109.8,13.49,4.09,53.5
"2010-01-31 00:57:30",1639114,8.28,93.8,6.397,1.213,7.337,101.5705,3.307,4.575,34.07,0,109.8,13.49,4.07,55.8
"2010-01-31 00:58:00",1639115,9.04,98.2,2.826,0.764,9.03,101.5666,3.297,4.652,34.08,0,109.8,13.49,4.06,60.2
"2010-01-31 00:58:30",1639116,9.12,98.9,2.844,0.756,8.83,101.5623,3.286,4.657,33.84,0,109.7,13.49,4.05,60.9
"2010-01-31 00:59:00",1639117,9.11,97.8,4.447,0.605,8.93,101.5609,3.282,4.633,33.76,0,109.7,13.49,4.05,59.8
"2010-01-31 00:59:30",1639118,8.17,92.6,6.187,1.2,6.271,101.5609,3.282,4.455,33.56,0,109.7,13.49,4.05,54.6
"2010-01-31 01:00:00",1639119,7.831,92.7,5.798,1.078,6.185,101.5609,3.282,4.482,33.59,0,109.7,13.49,4.05,54.7
"2010-01-31 01:00:30",1639120,8.62,96,6.02,1.217,7.368,101.5609,3.282,4.525,33.67,0,109.7,13.49,4.05,58.0
"2010-01-31 01:01:00",1639121,9.35,99.8,3.565,0.697,8.96,101.5609,3.282,4.607,33.67,0,109.7,13.49,4.05,61.8
"2010-01-31 01:01:30",1639122,9.42,99.3,4.046,0.653,8.92,101.5609,3.282,4.645,33.6,0,109.7,13.49,4.05,61.3
"2010-01-31 01:02:00",1639123,9.05,96.4,5.749,1.053,7.993,101.5609,3.282,4.596,33.53,0,109.7,13.49,4.05,58.4
"2010-01-31 01:02:30",1639124,8.76,95.8,5.595,1.082,7.956,101.5609,3.282,4.532,33.49,0,109.7,13.49,4.05,57.8
"2010-01-31 01:03:00",1639125,7.161,87.8,2.41,0.739,4.566,101.5609,3.282,4.388,33.38,0,109.7,13.49,4.05,49.8
"2010-01-31 01:03:30",1639126,8.91,98.1,4.005,0.917,8.33,101.5609,3.282,4.489,33.47,0,109.7,13.5,4.05,60.1
"2010-01-31 01:04:00",1639127,9.01,97.4,4.925,0.847,8.81,101.5609,3.282,4.581,33.57,0,109.7,13.5,4.05,59.4
"2010-01-31 01:04:30",1639128,9.2,98.9,3.51,0.655,8.96,101.5618,3.284,4.604,33.61,0,109.7,13.5,4.05,60.9
"2010-01-31 01:05:00",1639129,9.26,98,3.803,0.406,9.14,101.5618,3.284,4.552,33.6,0,109.7,13.5,4.05,60.0
"2010-01-31 01:05:30",1639130,8.27,94.2,6.331,1.237,7.121,101.5621,3.285,4.519,33.58,0,109.7,13.5,4.05,56.2
"2010-01-31 01:06:00",1639131,7.797,90.7,6.546,1.254,6.15,101.5626,3.287,4.363,33.52,0,109.7,13.5,4.05,52.7
"2010-01-31 01:06:30",1639132,7.727,91.1,5.777,1.164,6.682,101.5626,3.287,4.504,33.83,0,109.8,13.5,4.05,53.1
"2010-01-31 01:07:00",1639133,8.05,93,4.879,1.104,8.05,101.5638,3.29,4.557,34.16,0,109.7,13.5,4.05,55.0
"2010-01-31 01:07:30",1639134,8.65,94.5,3.271,0.681,8.64,101.5626,3.287,4.586,34.34,0,109.7,13.5,4.05,56.5
"2010-01-31 01:08:00",1639135,8.04,89.9,5.855,1.156,7.537,101.5609,3.282,4.489,34.38,0,109.7,13.5,4.05,51.9
"2010-01-31 01:08:30",1639136,8.47,91.2,5.012,1.017,8.18,101.5573,3.273,4.613,34.53,0,109.7,13.5,4.04,53.2
"2010-01-31 01:09:00",1639137,8.27,90.7,6.208,1.174,7.53,101.5483,3.25,4.453,34.1,0,109.7,13.5,4.01,52.7
"2010-01-31 01:09:30",1639138,8.34,91.8,5.958,1.117,7.508,101.5378,3.223,4.518,33.91,0,109.7,13.5,3.99,53.8
"2010-01-31 01:10:00",1639139,8.85,94.5,4.233,0.7,8.63,101.537,3.221,4.524,33.91,0,109.7,13.5,3.98,56.5
"2010-01-31 01:10:30",1639140,8.16,91.7,5.401,1.158,7.564,101.539,3.226,4.547,34.03,0,109.7,13.5,3.99,53.7
"2010-01-31 01:11:00",1639141,8.11,91.9,6.581,1.212,7.249,101.5399,3.229,4.461,33.85,0,109.7,13.5,3.99,53.9
"2010-01-31 01:11:30",1639142,8.57,93.8,5.658,0.975,8.44,101.5433,3.237,4.533,33.7,0,109.7,13.5,4.00,55.8
"2010-01-31 01:12:00",1639143,7.943,91.1,6.279,1.215,6.762,101.5428,3.236,4.449,33.59,0,109.7,13.5,4.00,53.1
"2010-01-31 01:12:30",1639144,8.48,93.3,5.724,0.986,7.991,101.5459,3.244,4.462,33.57,0,109.7,13.5,4.01,55.3
"2010-01-31 01:13:00",1639145,8.19,91,6.005,1.161,7.259,101.5479,3.249,4.485,33.63,0,109.7,13.5,4.01,53.0
"2010-01-31 01:13:30",1639146,8.33,90.3,6.302,1.163,7.8,101.5491,3.252,4.502,33.77,0,109.7,13.5,4.02,52.3
"2010-01-31 01:14:00",1639147,8.44,90.6,5.611,1.076,7.993,101.5451,3.242,4.454,33.9,0,109.7,13.5,4.01,52.6
"2010-01-31 01:14:30",1639148,8.43,90.4,5.279,1.133,8.1,101.5381,3.224,4.541,33.95,0,109.7,13.5,3.99,52.4
"2010-01-31 01:15:00",1639149,8.53,89.7,5.381,1.072,7.769,101.5338,3.213,4.471,33.84,0,109.7,13.5,3.98,51.7
"2010-01-31 01:15:30",1639150,8.23,87.8,6.226,1.17,7.588,101.5316,3.207,4.457,33.73,0,109.7,13.5,3.97,49.8
"2010-01-31 01:16:00",1639151,8.29,89.7,5.744,1.119,7.711,101.522,3.183,4.483,33.99,0,109.7,13.5,3.95,51.7
"2010-01-31 01:16:30",1639152,8.27,88.7,6.162,1.144,7.569,101.5183,3.173,4.393,33.92,0,109.7,13.5,3.94,50.7
"2010-01-31 01:17:00",1639153,8.09,88,5.579,1.183,7.466,101.5192,3.176,4.436,34.04,0,109.7,13.5,3.94,50.0
"2010-01-31 01:17:30",1639154,8.88,92.3,3.433,0.682,8.35,101.5189,3.175,4.48,33.93,0,109.7,13.5,3.94,54.3
"2010-01-31 01:18:00",1639155,8.34,88.6,5.459,1.108,7.866,101.5192,3.176,4.392,33.95,0,109.7,13.5,3.94,50.6
"2010-01-31 01:18:30",1639156,7.845,86.7,6.261,1.181,6.587,101.5203,3.179,4.406,33.97,0,109.7,13.5,3.94,48.7
"2010-01-31 01:19:00",1639157,8.49,90,6.149,1.053,7.62,101.5121,3.158,4.425,33.87,0,109.7,13.5,3.92,52.0
"2010-01-31 01:19:30",1639158,8.54,90.1,5.752,1.125,7.813,101.5042,3.137,4.394,33.91,0,109.7,13.5,3.90,52.1
"2010-01-31 01:20:00",1639159,8.77,90,5.745,1.098,7.899,101.5005,3.128,4.392,34.02,0,109.7,13.51,3.89,52.0
"2010-01-31 01:20:30",1639160,9.17,92,3.062,0.564,8.71,101.4881,3.096,4.436,34.01,0,109.7,13.51,3.86,54.0
"2010-01-31 01:21:00",1639161,8.56,89.4,5.543,1.103,7.884,101.4887,3.098,4.368,33.95,0,109.7,13.51,3.86,51.4
"2010-01-31 01:21:30",1639162,7.575,85.7,7.213,1.131,6.372,101.4912,3.104,4.347,34,0,109.7,13.51,3.87,47.7
"2010-01-31 01:22:00",1639163,8.38,88.6,5.607,1.098,7.828,101.491,3.104,4.309,33.85,0,109.8,13.51,3.87,50.6
"2010-01-31 01:22:30",1639164,8.01,86.3,6.602,1.211,7.45,101.4921,3.107,4.345,33.86,0,109.7,13.51,3.87,48.3
"2010-01-31 01:23:00",1639165,8.62,89.5,2.793,0.863,8.71,101.4927,3.108,4.413,33.87,0,109.7,13.51,3.87,51.5
"2010-01-31 01:23:30",1639166,8.1,85.6,5.883,1.115,7.865,101.4913,3.104,4.365,33.75,0,109.7,13.51,3.87,47.6
"2010-01-31 01:24:00",1639167,7.839,84,5.784,1.147,6.98,101.4887,3.098,4.31,33.76,0,109.7,13.51,3.86,46.0
"2010-01-31 01:24:30",1639168,8.01,84.8,6.297,1.141,6.849,101.4839,3.086,4.178,33.65,0,109.7,13.51,3.85,46.8
"2010-01-31 01:25:00",1639169,8.33,86.3,4.705,0.995,8.03,101.4788,3.073,4.268,33.74,0,109.7,13.51,3.84,48.3
"2010-01-31 01:25:30",1639170,8.07,84.3,5.902,1.202,8.08,101.4743,3.061,4.382,33.88,0,109.7,13.51,3.82,46.3
"2010-01-31 01:26:00",1639171,8.69,86.7,2.874,0.789,8.79,101.4678,3.045,4.376,33.9,0,109.7,13.51,3.81,48.7
"2010-01-31 01:26:30",1639172,8.32,86,5.502,1.023,8.04,101.461,3.027,4.28,33.71,0,109.7,13.51,3.79,48.0
"2010-01-31 01:27:00",1639173,6.634,76.88,3.796,0.959,4.917,101.4596,3.024,4.179,33.57,0,109.7,13.51,3.79,38.9
"2010-01-31 01:27:30",1639174,8.03,86.6,5.642,1.096,7.659,101.4596,3.024,4.21,33.58,0,109.7,13.51,3.79,48.6
"2010-01-31 01:28:00",1639175,7.822,84.7,6.88,1.257,7.168,101.4596,3.024,4.236,33.59,0,109.7,13.51,3.79,46.7
"2010-01-31 01:28:30",1639176,8.41,87.3,5.396,0.919,8.35,101.4596,3.024,4.342,33.72,0,109.7,13.51,3.79,49.3
"2010-01-31 01:29:00",1639177,8.72,86.8,4.228,0.585,8.85,101.4596,3.024,4.329,33.71,0,109.7,13.51,3.79,48.8
"2010-01-31 01:29:30",1639178,8.5,84.6,5.272,0.779,8.08,101.4596,3.024,4.276,33.64,0,109.7,13.51,3.79,46.6
"2010-01-31 01:30:00",1639179,7.144,78.27,5.556,1.185,5.601,101.4596,3.024,4.05,33.46,0,109.8,13.52,3.79,40.3
"2010-01-31 01:30:30",1639180,7.91,81.3,5.783,1.249,7.304,101.4596,3.024,4.24,33.67,0,109.7,13.52,3.79,43.3
"2010-01-31 01:31:00",1639181,8.03,77.75,6.269,1.228,6.999,101.4585,3.021,4.279,33.62,0,109.7,13.51,3.78,39.8
"2010-01-31 01:31:30",1639182,8.55,82.1,4.938,0.928,8.28,101.4568,3.016,4.296,33.58,0,109.7,13.52,3.78,44.1
"2010-01-31 01:32:00",1639183,8.64,82.1,4.942,0.994,8.13,101.4457,2.988,4.298,33.6,0,109.7,13.51,3.75,44.1
"2010-01-31 01:32:30",1639184,8.82,81.6,4.589,0.8,8.31,101.433,2.956,4.283,33.6,0,109.7,13.51,3.72,43.6
"2010-01-31 01:33:00",1639185,8.92,81,3.44,0.761,8.24,101.4274,2.941,4.32,33.64,0,109.7,13.51,3.70,43.0
"2010-01-31 01:33:30",1639186,8.12,77.35,6.279,1.197,6.874,101.4257,2.937,4.226,33.63,0,109.7,13.51,3.70,39.3
"2010-01-31 01:34:00",1639187,7.965,76.73,6.15,1.191,6.042,101.4257,2.937,4.077,33.44,0,109.7,13.51,3.70,38.7
"2010-01-31 01:34:30",1639188,7.749,78.58,7.097,1.212,6.239,101.4257,2.937,4.186,33.5,0,109.7,13.51,3.70,40.6
"2010-01-31 01:35:00",1639189,8.53,87.3,4.617,0.932,8.49,101.4257,2.937,4.269,33.57,0,109.7,13.51,3.70,49.3
"2010-01-31 01:35:30",1639190,8.72,85.2,5.153,0.803,8.46,101.4257,2.937,4.195,33.66,0,109.7,13.52,3.70,47.2
"2010-01-31 01:36:00",1639191,8.73,87,4.05,0.566,8.64,101.4214,2.926,4.256,33.76,0,109.7,13.52,3.69,49.0
"2010-01-31 01:36:30",1639192,8.17,86.3,5.465,1.062,7.728,101.4138,2.907,4.183,33.79,0,109.7,13.52,3.67,48.3
"2010-01-31 01:37:00",1639193,8.23,87.1,6.392,1.105,7.182,101.4078,2.892,4.118,33.67,0,109.7,13.52,3.65,49.1
"2010-01-31 01:37:30",1639194,7.811,84.4,6.3,1.221,6.279,101.4005,2.873,4.09,33.69,0,109.7,13.52,3.63,46.4
"2010-01-31 01:38:00",1639195,8.33,87.8,6.285,1.214,7.165,101.392,2.851,4.108,33.89,0,109.7,13.52,3.61,49.8
"2010-01-31 01:38:30",1639196,8.73,90.9,5.433,0.999,7.905,101.3917,2.85,4.142,33.74,0,109.7,13.52,3.61,52.9
"2010-01-31 01:39:00",1639197,8.6,91.6,5.143,1.007,8.23,101.3917,2.85,4.155,33.6,0,109.7,13.52,3.61,53.6
"2010-01-31 01:39:30",1639198,9.04,95.2,3.796,0.525,8.34,101.3917,2.85,4.197,33.67,0,109.7,13.52,3.61,57.2
"2010-01-31 01:40:00",1639199,8.6,93.1,5.281,1.026,8.23,101.3917,2.85,4.187,33.73,0,109.7,13.52,3.61,55.1
"2010-01-31 01:40:30",1639200,8.28,90.5,6.071,1.063,7.193,101.3917,2.85,4.099,33.74,0,109.7,13.52,3.61,52.5
"2010-01-31 01:41:00",1639201,7.64,88.8,6.436,1.15,6.438,101.3892,2.844,4.041,33.81,0,109.7,13.52,3.61,50.8
"2010-01-31 01:41:30",1639202,7.579,86.1,6.158,1.145,5.605,101.3838,2.83,3.964,33.78,0,109.7,13.52,3.59,48.1
"2010-01-31 01:42:00",1639203,8.52,90.5,5.684,1.105,7.62,101.3759,2.81,4.103,34.02,0,109.7,13.52,3.57,52.5
"2010-01-31 01:42:30",1639204,8.97,92.7,4.058,0.562,8.69,101.3711,2.798,4.174,34.1,0,109.7,13.53,3.56,54.7
"2010-01-31 01:43:00",1639205,8.7,94.7,3.845,0.718,8.19,101.3609,2.772,4.141,33.9,0,109.7,13.53,3.53,56.7
"2010-01-31 01:43:30",1639206,8.64,94.2,3.715,0.766,8.15,101.3578,2.764,4.15,33.91,0,109.7,13.53,3.53,56.2
"2010-01-31 01:44:00",1639207,8.81,93.5,3.79,0.759,7.918,101.3578,2.764,4.151,33.8,0,109.7,13.52,3.53,55.5
"2010-01-31 01:44:30",1639208,8.81,92.5,3.687,0.696,7.824,101.3578,2.764,4.123,33.73,0,109.7,13.52,3.53,54.5
"2010-01-31 01:45:00",1639209,8.77,94,3.165,0.792,7.646,101.3578,2.764,4.121,33.66,0,109.7,13.52,3.53,56.0
"2010-01-31 01:45:30",1639210,7.847,88.7,6.757,1.324,5.209,101.3578,2.764,3.944,33.25,0,109.7,13.52,3.53,50.7
"2010-01-31 01:46:00",1639211,6.912,83.9,0.823,0.223,3.353,101.3564,2.76,3.85,32.98,0,109.7,13.53,3.52,45.9
"2010-01-31 01:46:30",1639212,8.56,92.5,6.544,1.124,7.006,101.3453,2.732,3.995,33.08,0,109.7,13.53,3.49,54.5
"2010-01-31 01:47:00",1639213,8.98,93.5,4.392,0.692,8.23,101.3394,2.717,4.08,33.1,0,109.7,13.52,3.48,55.5
"2010-01-31 01:47:30",1639214,9.05,93.6,2.728,0.578,8.89,101.3278,2.687,4.064,33.16,0,109.7,13.52,3.45,55.6
"2010-01-31 01:48:00",1639215,9.01,93.6,3.358,0.661,8.66,101.3238,2.677,4.08,33.07,0,109.7,13.52,3.44,55.6
"2010-01-31 01:48:30",1639216,9.05,95.4,2.752,0.685,8.23,101.3238,2.677,4.057,32.92,0,109.7,13.52,3.44,57.4
"2010-01-31 01:49:00",1639217,8.61,90.9,5.98,1.079,6.927,101.3241,2.678,4.021,33,0,109.7,13.52,3.44,52.9
"2010-01-31 01:49:30",1639218,7.788,86.5,6.322,1.237,5.12,101.3238,2.677,3.797,32.85,0,109.7,13.52,3.44,48.5
"2010-01-31 01:50:00",1639219,7.636,88.4,6.022,0.967,5.581,101.3238,2.677,3.937,32.89,0,109.7,13.52,3.44,50.4
"2010-01-31 01:50:30",1639220,9.23,95.3,4.37,0.659,8.35,101.3204,2.668,3.969,32.88,0,109.7,13.52,3.43,57.3